Year,Month,Day,Hour,Minute,Value (Times are PST for temperature in C)
2011,09,27,05,10,12.40
2011,09,27,05,13,12.30
2011,09,27,05,14,12.30
2011,09,27,05,15,12.30
2011,09,27,05,16,12.30
2011,09,27,05,17,12.30
2011,09,27,05,18,12.30
2011,09,27,05,19,12.30
2011,09,27,05,20,12.30
2011,09,27,05,21,12.30
2011,09,27,05,22,12.30
2011,09,27,05,23,12.20
2011,09,27,05,24,12.20
2011,09,27,05,25,12.20
2011,09,27,05,26,12.20
2011,09,27,05,27,12.20
2011,09,27,05,28,12.20
2011,09,27,05,29,12.10
2011,09,27,05,30,12.10
2011,09,27,05,31,12.10
2011,09,27,05,32,12.00
2011,09,27,05,33,12.00
2011,09,27,05,34,11.90
2011,09,27,05,35,11.90
2011,09,27,05,36,11.90
2011,09,27,05,37,11.90
2011,09,27,05,38,11.90
2011,09,27,05,39,11.80
2011,09,27,05,40,11.80
2011,09,27,05,41,11.80
2011,09,27,05,42,11.80
2011,09,27,05,43,11.80
2011,09,27,05,44,11.80
2011,09,27,05,45,11.80
2011,09,27,05,46,11.70
2011,09,27,05,47,11.70
2011,09,27,05,48,11.70
2011,09,27,05,49,11.60
2011,09,27,05,50,11.60
2011,09,27,05,51,11.60
2011,09,27,05,52,11.60
2011,09,27,05,53,11.50
2011,09,27,05,54,11.50
2011,09,27,05,55,11.40
2011,09,27,05,56,11.40
2011,09,27,05,57,11.40
2011,09,27,05,58,11.40
2011,09,27,05,59,11.40
2011,09,27,06,00,11.40
2011,09,27,06,01,11.40
2011,09,27,06,02,11.40
2011,09,27,06,03,11.40
2011,09,27,06,04,11.40
2011,09,27,06,05,11.30
2011,09,27,06,06,11.30
2011,09,27,06,07,11.30
2011,09,27,06,08,11.30
2011,09,27,06,09,11.20
2011,09,27,06,10,11.20
2011,09,27,06,11,11.20
2011,09,27,06,12,11.20
2011,09,27,06,13,11.20
2011,09,27,06,14,11.20
2011,09,27,06,15,11.20
2011,09,27,06,16,11.20
2011,09,27,06,17,11.10
2011,09,27,06,18,11.10
2011,09,27,06,19,11.10
2011,09,27,06,20,11.10
2011,09,27,06,21,11.10
2011,09,27,06,22,11.00
2011,09,27,06,23,11.00
2011,09,27,06,24,11.00
2011,09,27,06,25,11.00
2011,09,27,06,26,10.90
2011,09,27,06,27,10.90
2011,09,27,06,28,10.90
2011,09,27,06,29,10.90
2011,09,27,06,30,10.80
2011,09,27,06,31,10.80
2011,09,27,06,32,10.80
2011,09,27,06,33,10.80
2011,09,27,06,34,10.80
2011,09,27,06,35,10.70
2011,09,27,06,36,10.70
2011,09,27,06,37,10.70
2011,09,27,06,38,10.70
2011,09,27,06,39,10.70
2011,09,27,06,40,10.70
2011,09,27,06,41,10.70
2011,09,27,06,42,10.70
2011,09,27,06,43,10.70
2011,09,27,06,44,10.70
2011,09,27,06,46,10.70
2011,09,27,06,48,10.60
2011,09,27,06,52,10.60
2011,09,27,09,48,12.90
2011,09,27,09,49,12.90
2011,09,27,09,50,12.90
2011,09,27,09,51,12.90
2011,09,27,09,52,13.00
2011,09,27,09,53,13.00
2011,09,27,09,54,13.00
2011,09,27,09,55,13.00
2011,09,27,09,56,13.00
2011,09,27,09,57,13.00
2011,09,27,09,58,13.00
2011,09,27,09,59,13.00
2011,09,27,10,00,13.00
2011,09,27,10,01,13.00
2011,09,27,10,02,13.00
2011,09,27,10,03,13.00
2011,09,27,10,04,13.00
2011,09,27,10,05,13.00
2011,09,27,10,06,13.10
2011,09,27,10,07,13.10
2011,09,27,10,08,13.20
2011,09,27,10,09,13.30
2011,09,27,10,10,13.30
2011,09,27,10,11,13.30
2011,09,27,10,12,13.40
2011,09,27,10,13,13.40
2011,09,27,10,14,13.50
2011,09,27,10,15,13.50
2011,09,27,10,16,13.60
2011,09,27,10,17,13.60
2011,09,27,10,18,13.70
2011,09,27,10,19,13.70
2011,09,27,10,20,13.80
2011,09,27,10,21,13.80
2011,09,27,10,22,13.90
2011,09,27,10,23,13.90
2011,09,27,10,24,13.90
2011,09,27,10,25,13.90
2011,09,27,10,26,13.90
2011,09,27,10,27,13.80
2011,09,27,10,28,13.80
2011,09,27,10,29,13.80
2011,09,27,10,30,13.80
2011,09,27,10,31,13.80
2011,09,27,10,32,13.70
2011,09,27,10,33,13.70
2011,09,27,10,34,13.80
2011,09,27,10,35,13.80
2011,09,27,10,36,13.80
2011,09,27,10,37,13.80
2011,09,27,10,38,13.80
2011,09,27,10,39,13.80
2011,09,27,10,40,13.90
2011,09,27,10,41,13.90
2011,09,27,10,42,14.00
2011,09,27,10,43,14.00
2011,09,27,10,44,14.00
2011,09,27,10,45,14.10
2011,09,27,10,46,14.10
2011,09,27,10,47,14.20
2011,09,27,10,48,14.20
2011,09,27,10,49,14.20
2011,09,27,10,50,14.30
2011,09,27,10,51,14.30
2011,09,27,10,52,14.40
2011,09,27,10,53,14.40
2011,09,27,10,54,14.40
2011,09,27,10,55,14.40
2011,09,27,10,56,14.40
2011,09,27,10,57,14.40
2011,09,27,10,58,14.40
2011,09,27,10,59,14.50
2011,09,27,11,00,14.50
2011,09,27,11,01,14.60
2011,09,27,11,02,14.60
2011,09,27,11,03,14.60
2011,09,27,11,04,14.60
2011,09,27,11,05,14.60
2011,09,27,11,06,14.60
2011,09,27,11,07,14.60
2011,09,27,11,08,14.60
2011,09,27,11,09,14.60
2011,09,27,11,10,14.70
2011,09,27,11,11,14.70
2011,09,27,11,12,14.70
2011,09,27,11,13,14.70
2011,09,27,11,14,14.80
2011,09,27,11,15,14.70
2011,09,27,11,16,14.70
2011,09,27,11,17,14.60
2011,09,27,11,18,14.60
2011,09,27,11,19,14.50
2011,09,27,11,20,14.50
2011,09,27,11,21,14.50
2011,09,27,11,22,14.50
2011,09,27,11,23,14.50
2011,09,27,11,24,14.50
2011,09,27,11,25,14.40
2011,09,27,11,26,14.40
2011,09,27,11,27,14.30
2011,09,27,11,28,14.30
2011,09,27,11,29,14.40
2011,09,27,11,30,14.40
2011,09,27,11,31,14.40
2011,09,27,11,32,14.40
2011,09,27,11,33,14.40
2011,09,27,11,34,14.50
2011,09,27,11,35,14.60
2011,09,27,11,36,14.60
2011,09,27,11,37,14.60
2011,09,27,11,38,14.70
2011,09,27,11,39,14.70
2011,09,27,11,40,14.80
2011,09,27,11,41,14.80
2011,09,27,11,42,14.80
2011,09,27,11,43,14.80
2011,09,27,11,44,14.70
2011,09,27,11,45,14.70
2011,09,27,11,46,14.60
2011,09,27,11,47,14.50
2011,09,27,11,48,14.30
2011,09,27,11,49,14.20
2011,09,27,11,50,14.20
2011,09,27,11,51,14.20
2011,09,27,11,52,14.20
2011,09,27,11,53,14.20
2011,09,27,11,54,14.20
2011,09,27,11,55,14.20
2011,09,27,11,56,14.20
2011,09,27,11,57,14.20
2011,09,27,11,58,14.30
2011,09,27,11,59,14.30
2011,09,27,12,00,14.30
2011,09,27,12,01,14.30
2011,09,27,12,02,14.40
2011,09,27,12,03,14.40
2011,09,27,12,04,14.50
2011,09,27,12,05,14.50
2011,09,27,12,06,14.50
2011,09,27,12,07,14.50
2011,09,27,12,08,14.60
2011,09,27,12,09,14.60
2011,09,27,12,10,14.60
2011,09,27,12,11,14.60
2011,09,27,12,12,14.70
2011,09,27,12,13,14.70
2011,09,27,12,14,14.70
2011,09,27,12,15,14.70
2011,09,27,12,16,14.70
2011,09,27,12,17,14.70
2011,09,27,12,18,14.70
2011,09,27,12,19,14.70
2011,09,27,12,20,14.70
2011,09,27,12,21,14.70
2011,09,27,12,22,14.80
2011,09,27,12,23,14.80
2011,09,27,12,24,14.80
2011,09,27,12,25,14.80
2011,09,27,12,26,14.80
2011,09,27,12,27,14.80
2011,09,27,12,28,14.80
2011,09,27,12,29,14.90
2011,09,27,12,30,15.00
2011,09,27,12,31,14.90
2011,09,27,12,32,14.90
2011,09,27,12,33,14.90
2011,09,27,12,34,14.90
2011,09,27,12,35,15.00
2011,09,27,12,36,15.00
2011,09,27,12,37,15.00
2011,09,27,12,38,15.00
2011,09,27,12,39,15.00
2011,09,27,12,40,15.00
2011,09,27,12,41,15.00
2011,09,27,12,42,15.00
2011,09,27,12,43,15.00
2011,09,27,12,44,15.00
2011,09,27,12,45,15.00
2011,09,27,12,46,15.00
2011,09,27,12,47,15.00
2011,09,27,12,48,15.00
2011,09,27,12,49,15.00
2011,09,27,12,50,15.00
2011,09,27,12,51,15.00
2011,09,27,12,52,15.00
2011,09,27,12,53,15.00
2011,09,27,12,54,15.00
2011,09,27,12,55,15.00
2011,09,27,12,56,14.90
2011,09,27,12,57,14.90
2011,09,27,12,58,15.00
2011,09,27,12,59,15.00
2011,09,27,13,00,15.00
2011,09,27,13,01,15.00
2011,09,27,13,02,15.00
2011,09,27,13,03,15.00
2011,09,27,13,04,15.00
2011,09,27,13,05,15.20
2011,09,27,13,06,15.20
2011,09,27,13,07,15.20
2011,09,27,13,08,15.10
2011,09,27,13,09,15.10
2011,09,27,13,10,15.10
2011,09,27,13,11,15.10
2011,09,27,13,12,15.10
2011,09,27,13,13,15.00
2011,09,27,13,14,15.00
2011,09,27,13,15,15.00
2011,09,27,13,16,15.10
2011,09,27,13,17,15.40
2011,09,27,13,18,15.60
2011,09,27,13,19,15.80
2011,09,27,13,20,15.90
2011,09,27,13,21,16.00
2011,09,27,13,22,16.20
2011,09,27,13,23,16.30
2011,09,27,13,24,16.30
2011,09,27,13,25,16.40
2011,09,27,13,26,16.50
2011,09,27,13,27,16.50
2011,09,27,13,28,16.60
2011,09,27,13,29,16.50
2011,09,27,13,30,16.50
2011,09,27,13,31,16.50
2011,09,27,13,32,16.40
2011,09,27,13,33,16.40
2011,09,27,13,34,16.40
2011,09,27,13,35,16.40
2011,09,27,13,36,16.30
2011,09,27,13,37,16.30
2011,09,27,13,38,16.30
2011,09,27,13,39,16.30
2011,09,27,13,40,16.20
2011,09,27,13,41,16.10
2011,09,27,13,42,16.10
2011,09,27,13,43,16.10
2011,09,27,13,44,16.10
2011,09,27,13,45,16.10
2011,09,27,13,46,16.00
2011,09,27,13,47,16.00
2011,09,27,13,48,15.90
2011,09,27,13,49,15.90
2011,09,27,13,50,15.80
2011,09,27,13,51,15.80
2011,09,27,13,52,15.70
2011,09,27,13,53,15.60
2011,09,27,13,54,15.50
2011,09,27,13,55,15.50
2011,09,27,13,56,15.40
2011,09,27,13,57,15.20
2011,09,27,13,58,15.20
2011,09,27,13,59,15.20
2011,09,27,14,00,15.20
2011,09,27,14,01,15.20
2011,09,27,14,02,15.30
2011,09,27,14,03,15.30
2011,09,27,14,04,15.20
2011,09,27,14,05,15.20
2011,09,27,14,06,15.20
2011,09,27,14,07,15.30
2011,09,27,14,08,15.30
2011,09,27,14,09,15.40
2011,09,27,14,10,15.50
2011,09,27,14,11,15.60
2011,09,27,14,12,15.60
2011,09,27,14,13,15.70
2011,09,27,14,14,15.70
2011,09,27,14,15,15.70
2011,09,27,14,16,15.60
2011,09,27,14,17,15.60
2011,09,27,14,18,15.60
2011,09,27,14,19,15.60
2011,09,27,14,20,15.70
2011,09,27,14,21,15.70
2011,09,27,14,22,15.70
2011,09,27,14,23,15.70
2011,09,27,14,24,15.80
2011,09,27,14,25,15.80
2011,09,27,14,26,15.80
2011,09,27,14,27,15.90
2011,09,27,14,28,15.90
2011,09,27,14,29,15.90
2011,09,27,14,30,16.00
2011,09,27,14,31,16.10
2011,09,27,14,32,16.30
2011,09,27,14,33,16.40
2011,09,27,14,34,16.40
2011,09,27,14,35,16.40
2011,09,27,14,36,16.40
2011,09,27,14,37,16.30
2011,09,27,14,38,16.20
2011,09,27,14,39,16.10
2011,09,27,14,40,16.10
2011,09,27,14,41,16.00
2011,09,27,14,42,15.90
2011,09,27,14,43,15.90
2011,09,27,14,44,15.80
2011,09,27,14,45,15.80
2011,09,27,14,46,15.70
2011,09,27,14,47,15.70
2011,09,27,14,48,15.60
2011,09,27,14,49,15.60
2011,09,27,14,50,15.60
2011,09,27,14,51,15.50
2011,09,27,14,52,15.50
2011,09,27,14,53,15.40
2011,09,27,14,54,15.40
2011,09,27,14,55,15.40
2011,09,27,14,56,15.40
2011,09,27,14,57,15.30
2011,09,27,14,58,15.30
2011,09,27,14,59,15.20
2011,09,27,15,00,15.20
2011,09,27,15,01,15.00
2011,09,27,15,02,15.00
2011,09,27,15,03,15.00
2011,09,27,15,04,15.00
2011,09,27,15,05,15.00
2011,09,27,15,06,15.00
2011,09,27,15,07,15.00
2011,09,27,15,08,15.00
2011,09,27,15,09,15.00
2011,09,27,15,10,15.00
2011,09,27,15,11,15.00
2011,09,27,15,12,15.00
2011,09,27,15,13,15.00
2011,09,27,15,14,15.00
2011,09,27,15,15,15.00
2011,09,27,15,16,15.20
2011,09,27,15,17,15.30
2011,09,27,15,18,15.40
2011,09,27,15,19,15.50
2011,09,27,15,20,15.60
2011,09,27,15,21,15.60
2011,09,27,15,22,15.60
2011,09,27,15,23,15.70
2011,09,27,15,24,15.70
2011,09,27,15,25,15.70
2011,09,27,15,26,15.70
2011,09,27,15,27,15.80
2011,09,27,15,28,15.80
2011,09,27,15,29,15.80
2011,09,27,15,30,15.80
2011,09,27,15,31,15.80
2011,09,27,15,32,15.90
2011,09,27,15,33,15.90
2011,09,27,15,34,16.00
2011,09,27,15,35,16.10
2011,09,27,15,36,16.20
2011,09,27,15,37,16.20
2011,09,27,15,38,16.30
2011,09,27,15,39,16.30
2011,09,27,15,40,16.30
2011,09,27,15,41,16.30
2011,09,27,15,42,16.30
2011,09,27,15,43,16.30
2011,09,27,15,44,16.30
2011,09,27,15,45,16.30
2011,09,27,15,46,16.30
2011,09,27,15,47,16.30
2011,09,27,15,48,16.30
2011,09,27,15,49,16.40
2011,09,27,15,50,16.40
2011,09,27,15,51,16.40
2011,09,27,15,52,16.40
2011,09,27,15,53,16.40
2011,09,27,15,54,16.40
2011,09,27,15,55,16.40
2011,09,27,15,56,16.40
2011,09,27,15,57,16.30
2011,09,27,15,58,16.30
2011,09,27,15,59,16.30
2011,09,27,16,00,16.30
2011,09,27,16,01,16.30
2011,09,27,16,02,16.20
2011,09,27,16,03,16.10
2011,09,27,16,04,16.00
2011,09,27,16,05,15.90
2011,09,27,16,06,15.80
2011,09,27,16,07,15.80
2011,09,27,16,08,15.80
2011,09,27,16,09,15.70
2011,09,27,16,10,15.70
2011,09,27,16,11,15.70
2011,09,27,16,12,15.80
2011,09,27,16,13,15.80
2011,09,27,16,14,15.80
2011,09,27,16,15,15.80
2011,09,27,16,16,15.70
2011,09,27,16,17,15.50
2011,09,27,16,18,15.40
2011,09,27,16,19,15.30
2011,09,27,16,20,15.40
2011,09,27,16,21,15.40
2011,09,27,16,22,15.50
2011,09,27,16,23,15.50
2011,09,27,16,24,15.60
2011,09,27,16,25,15.60
2011,09,27,16,26,15.60
2011,09,27,16,27,15.60
2011,09,27,16,28,15.60
2011,09,27,16,29,15.50
2011,09,27,16,30,15.50
2011,09,27,16,31,15.40
2011,09,27,16,32,15.30
2011,09,27,16,33,15.30
2011,09,27,16,34,15.30
2011,09,27,16,35,15.30
2011,09,27,16,36,15.30
2011,09,27,16,37,15.40
2011,09,27,16,38,15.40
2011,09,27,16,39,15.40
2011,09,27,16,40,15.40
2011,09,27,16,41,15.40
2011,09,27,16,42,15.40
2011,09,27,16,43,15.40
2011,09,27,16,44,15.40
2011,09,27,16,45,15.40
2011,09,27,16,46,15.40
2011,09,27,16,47,15.40
2011,09,27,16,48,15.50
2011,09,27,16,49,15.50
2011,09,27,16,50,15.60
2011,09,27,16,51,15.70
2011,09,27,16,52,15.80
2011,09,27,16,53,15.80
2011,09,27,16,54,15.90
2011,09,27,16,55,16.00
2011,09,27,16,56,16.00
2011,09,27,16,57,16.00
2011,09,27,16,58,16.00
2011,09,27,16,59,16.00
2011,09,27,17,00,16.00
2011,09,27,17,01,16.00
2011,09,27,17,02,16.00
2011,09,27,17,03,15.90
2011,09,27,17,04,15.90
2011,09,27,17,05,15.90
2011,09,27,17,06,15.80
2011,09,27,17,07,15.90
2011,09,27,17,08,15.90
2011,09,27,17,09,15.90
2011,09,27,17,10,15.90
2011,09,27,17,11,15.90
2011,09,27,17,12,15.90
2011,09,27,17,13,15.80
2011,09,27,17,14,15.80
2011,09,27,17,15,15.90
2011,09,27,17,16,15.90
2011,09,27,17,17,15.90
2011,09,27,17,18,15.90
2011,09,27,17,19,15.90
2011,09,27,17,20,15.90
2011,09,27,17,21,16.00
2011,09,27,17,22,16.00
2011,09,27,17,23,15.90
2011,09,27,17,24,15.90
2011,09,27,17,25,16.00
2011,09,27,17,26,16.00
2011,09,27,17,27,16.00
2011,09,27,17,28,15.90
2011,09,27,17,29,15.90
2011,09,27,17,30,15.90
2011,09,27,17,31,15.80
2011,09,27,17,32,15.80
2011,09,27,17,33,15.70
2011,09,27,17,34,15.70
2011,09,27,17,35,15.60
2011,09,27,17,36,15.60
2011,09,27,17,37,15.50
2011,09,27,17,38,15.40
2011,09,27,17,39,15.30
2011,09,27,17,40,15.30
2011,09,27,17,41,15.20
2011,09,27,17,42,15.20
2011,09,27,17,43,15.10
2011,09,27,17,44,15.00
2011,09,27,17,45,15.00
2011,09,27,17,46,15.00
2011,09,27,17,47,15.00
2011,09,27,17,48,15.00
2011,09,27,17,49,15.00
2011,09,27,17,50,15.00
2011,09,27,17,51,15.00
2011,09,27,17,52,14.90
2011,09,27,17,53,14.80
2011,09,27,17,54,14.70
2011,09,27,17,55,14.60
2011,09,27,17,56,14.50
2011,09,27,17,57,14.50
2011,09,27,17,58,14.40
2011,09,27,17,59,14.40
2011,09,27,18,00,14.30
2011,09,27,18,01,14.20
2011,09,27,18,02,14.10
2011,09,27,18,03,14.00
2011,09,27,18,04,14.00
2011,09,27,18,05,13.90
2011,09,27,18,06,13.90
2011,09,27,18,07,13.80
2011,09,27,18,08,13.80
2011,09,27,18,09,13.70
2011,09,27,18,10,13.70
2011,09,27,18,11,13.70
2011,09,27,18,12,13.70
2011,09,27,18,13,13.70
2011,09,27,18,14,13.70
2011,09,27,18,15,13.70
2011,09,27,18,16,13.70
2011,09,27,18,17,13.70
2011,09,27,18,18,13.70
2011,09,27,18,19,13.70
2011,09,27,18,20,13.80
2011,09,27,18,21,13.80
2011,09,27,18,22,13.80
2011,09,27,18,23,13.80
2011,09,27,18,24,13.70
2011,09,27,18,25,13.80
2011,09,27,18,26,13.70
2011,09,27,18,27,13.70
2011,09,27,18,28,13.70
2011,09,27,18,29,13.70
2011,09,27,18,30,13.70
2011,09,27,18,31,13.70
2011,09,27,18,32,13.70
2011,09,27,18,33,13.60
2011,09,27,18,34,13.60
2011,09,27,18,35,13.60
2011,09,27,18,36,13.60
2011,09,27,18,37,13.60
2011,09,27,18,38,13.50
2011,09,27,18,39,13.50
2011,09,27,18,40,13.50
2011,09,27,18,41,13.50
2011,09,27,18,42,13.50
2011,09,27,18,43,13.40
2011,09,27,18,44,13.40
2011,09,27,18,45,13.40
2011,09,27,18,46,13.40
2011,09,27,18,47,13.30
2011,09,27,18,48,13.30
2011,09,27,18,49,13.30
2011,09,27,18,50,13.30
2011,09,27,18,51,13.30
2011,09,27,18,52,13.30
2011,09,27,18,53,13.30
2011,09,27,18,54,13.30
2011,09,27,18,55,13.30
2011,09,27,18,56,13.30
2011,09,27,18,57,13.30
2011,09,27,18,58,13.30
2011,09,27,18,59,13.20
2011,09,27,19,00,13.20
2011,09,27,19,01,13.20
2011,09,27,19,02,13.20
2011,09,27,19,03,13.20
2011,09,27,19,04,13.20
2011,09,27,19,05,13.10
2011,09,27,19,06,13.10
2011,09,27,19,07,13.10
2011,09,27,19,08,13.00
2011,09,27,19,09,13.00
2011,09,27,19,10,13.00
2011,09,27,19,11,13.00
2011,09,27,19,12,13.00
2011,09,27,19,13,12.90
2011,09,27,19,14,12.90
2011,09,27,19,15,12.90
2011,09,27,19,16,12.90
2011,09,27,19,17,12.90
2011,09,27,19,18,12.90
2011,09,27,19,19,12.90
2011,09,27,19,20,12.80
2011,09,27,19,21,12.80
2011,09,27,19,22,12.80
2011,09,27,19,23,12.80
2011,09,27,19,24,12.80
2011,09,27,19,25,12.80
2011,09,27,19,26,12.80
2011,09,27,19,27,12.80
2011,09,27,19,28,12.80
2011,09,27,19,29,12.80
2011,09,27,19,30,12.80
2011,09,27,19,31,12.80
2011,09,27,19,32,12.80
2011,09,27,19,33,12.80
2011,09,27,19,34,12.80
2011,09,27,19,35,12.80
2011,09,27,19,36,12.80
2011,09,27,19,37,12.80
2011,09,27,19,38,12.80
2011,09,27,19,39,12.80
2011,09,27,19,40,12.80
2011,09,27,19,41,12.80
2011,09,27,19,42,12.80
2011,09,27,19,43,12.80
2011,09,27,19,44,12.80
2011,09,27,19,45,12.80
2011,09,27,19,46,12.80
2011,09,27,19,47,12.80
2011,09,27,19,48,12.80
2011,09,27,19,49,12.80
2011,09,27,19,50,12.80
2011,09,27,19,51,12.80
2011,09,27,19,52,12.70
2011,09,27,19,53,12.70
2011,09,27,19,54,12.70
2011,09,27,19,55,12.70
2011,09,27,19,56,12.70
2011,09,27,19,57,12.70
2011,09,27,19,58,12.70
2011,09,27,19,59,12.70
2011,09,27,20,00,12.70
2011,09,27,20,01,12.70
2011,09,27,20,02,12.70
2011,09,27,20,03,12.70
2011,09,27,20,04,12.70
2011,09,27,20,05,12.60
2011,09,27,20,06,12.60
2011,09,27,20,07,12.60
2011,09,27,20,08,12.60
2011,09,27,20,09,12.60
2011,09,27,20,10,12.60
2011,09,27,20,11,12.60
2011,09,27,20,12,12.60
2011,09,27,20,13,12.60
2011,09,27,20,14,12.50
2011,09,27,20,15,12.50
2011,09,27,20,16,12.50
2011,09,27,20,17,12.40
2011,09,27,20,18,12.40
2011,09,27,20,19,12.40
2011,09,27,20,20,12.40
2011,09,27,20,21,12.40
2011,09,27,20,22,12.40
2011,09,27,20,23,12.30
2011,09,27,20,24,12.30
2011,09,27,20,25,12.30
2011,09,27,20,26,12.30
2011,09,27,20,27,12.30
2011,09,27,20,28,12.30
2011,09,27,20,29,12.30
2011,09,27,20,30,12.30
2011,09,27,20,31,12.30
2011,09,27,20,32,12.20
2011,09,27,20,33,12.20
2011,09,27,20,34,12.20
2011,09,27,20,35,12.20
2011,09,27,20,36,12.20
2011,09,27,20,37,12.20
2011,09,27,20,38,12.30
2011,09,27,20,39,12.30
2011,09,27,20,40,12.30
2011,09,27,20,41,12.30
2011,09,27,20,42,12.30
2011,09,27,20,43,12.30
2011,09,27,20,44,12.30
2011,09,27,20,45,12.30
2011,09,27,20,46,12.30
2011,09,27,20,47,12.40
2011,09,27,20,48,12.40
2011,09,27,20,49,12.40
2011,09,27,20,50,12.40
2011,09,27,20,51,12.40
2011,09,27,20,52,12.40
2011,09,27,20,53,12.40
2011,09,27,20,54,12.40
2011,09,27,20,55,12.40
2011,09,27,20,56,12.30
2011,09,27,20,57,12.30
2011,09,27,20,58,12.30
2011,09,27,20,59,12.30
2011,09,27,21,00,12.30
2011,09,27,21,01,12.30
2011,09,27,21,02,12.30
2011,09,27,21,03,12.30
2011,09,27,21,04,12.20
2011,09,27,21,05,12.20
2011,09,27,21,06,12.20
2011,09,27,21,07,12.20
2011,09,27,21,08,12.20
2011,09,27,21,09,12.20
2011,09,27,21,10,12.20
2011,09,27,21,11,12.20
2011,09,27,21,12,12.20
2011,09,27,21,13,12.20
2011,09,27,21,14,12.20
2011,09,27,21,15,12.20
2011,09,27,21,16,12.20
2011,09,27,21,17,12.10
2011,09,27,21,18,12.10
2011,09,27,21,19,12.10
2011,09,27,21,20,12.00
2011,09,27,21,21,12.00
2011,09,27,21,22,11.90
2011,09,27,21,23,11.90
2011,09,27,21,24,11.90
2011,09,27,21,25,11.80
2011,09,27,21,26,11.80
2011,09,27,21,27,11.80
2011,09,27,21,28,11.80
2011,09,27,21,29,11.80
2011,09,27,21,30,11.70
2011,09,27,21,31,11.70
2011,09,27,21,32,11.70
2011,09,27,21,33,11.70
2011,09,27,21,34,11.70
2011,09,27,21,35,11.70
2011,09,27,21,36,11.70
2011,09,27,21,37,11.60
2011,09,27,21,38,11.60
2011,09,27,21,39,11.60
2011,09,27,21,40,11.60
2011,09,27,21,41,11.60
2011,09,27,21,42,11.60
2011,09,27,21,43,11.60
2011,09,27,21,44,11.60
2011,09,27,21,45,11.50
2011,09,27,21,46,11.50
2011,09,27,21,47,11.50
2011,09,27,21,48,11.50
2011,09,27,21,49,11.50
2011,09,27,21,50,11.40
2011,09,27,21,51,11.40
2011,09,27,21,52,11.40
2011,09,27,21,53,11.40
2011,09,27,21,54,11.40
2011,09,27,21,55,11.40
2011,09,27,21,56,11.40
2011,09,27,21,57,11.30
2011,09,27,21,58,11.30
2011,09,27,21,59,11.30
2011,09,27,22,00,11.30
2011,09,27,22,01,11.20
2011,09,27,22,02,11.20
2011,09,27,22,03,11.20
2011,09,27,22,04,11.10
2011,09,27,22,05,11.00
2011,09,27,22,06,11.00
2011,09,27,22,07,10.90
2011,09,27,22,08,10.90
2011,09,27,22,09,10.90
2011,09,27,22,10,10.90
2011,09,27,22,11,10.80
2011,09,27,22,12,10.80
2011,09,27,22,13,10.80
2011,09,27,22,14,10.80
2011,09,27,22,15,10.80
2011,09,27,22,16,10.80
2011,09,27,22,17,10.80
2011,09,27,22,18,10.80
2011,09,27,22,19,10.80
2011,09,27,22,20,10.80
2011,09,27,22,21,10.80
2011,09,27,22,22,10.80
2011,09,27,22,23,10.70
2011,09,27,22,24,10.70
2011,09,27,22,25,10.70
2011,09,27,22,26,10.70
2011,09,27,22,27,10.70
2011,09,27,22,28,10.70
2011,09,27,22,29,10.60
2011,09,27,22,30,10.60
2011,09,27,22,31,10.60
2011,09,27,22,32,10.60
2011,09,27,22,33,10.60
2011,09,27,22,34,10.50
2011,09,27,22,35,10.50
2011,09,27,22,36,10.40
2011,09,27,22,37,10.40
2011,09,27,22,38,10.40
2011,09,27,22,39,10.40
2011,09,27,22,40,10.50
2011,09,27,22,41,10.50
2011,09,27,22,42,10.50
2011,09,27,22,43,10.50
2011,09,27,22,44,10.50
2011,09,27,22,45,10.40
2011,09,27,22,46,10.40
2011,09,27,22,47,10.40
2011,09,27,22,48,10.40
2011,09,27,22,49,10.40
2011,09,27,22,50,10.50
2011,09,27,22,51,10.50
2011,09,27,22,52,10.60
2011,09,27,22,53,10.50
2011,09,27,22,54,10.50
2011,09,27,22,55,10.40
2011,09,27,22,56,10.40
2011,09,27,22,57,10.40
2011,09,27,22,58,10.40
2011,09,27,22,59,10.50
2011,09,27,23,00,10.50
2011,09,27,23,01,10.50
2011,09,27,23,02,10.50
2011,09,27,23,03,10.50
2011,09,27,23,04,10.50
2011,09,27,23,05,10.50
2011,09,27,23,06,10.50
2011,09,27,23,07,10.60
2011,09,27,23,08,10.60
2011,09,27,23,09,10.60
2011,09,27,23,10,10.60
2011,09,27,23,11,10.60
2011,09,27,23,12,10.70
2011,09,27,23,13,10.70
2011,09,27,23,14,10.70
2011,09,27,23,15,10.80
2011,09,27,23,16,10.80
2011,09,27,23,17,10.80
2011,09,27,23,18,10.70
2011,09,27,23,19,10.70
2011,09,27,23,20,10.70
2011,09,27,23,21,10.70
2011,09,27,23,22,10.70
2011,09,27,23,23,10.70
2011,09,27,23,24,10.70
2011,09,27,23,25,10.60
2011,09,27,23,26,10.60
2011,09,27,23,27,10.60
2011,09,27,23,28,10.60
2011,09,27,23,29,10.50
2011,09,27,23,30,10.50
2011,09,27,23,31,10.50
2011,09,27,23,32,10.40
2011,09,27,23,33,10.40
2011,09,27,23,34,10.40
2011,09,27,23,35,10.40
2011,09,27,23,36,10.30
2011,09,27,23,37,10.30
2011,09,27,23,38,10.30
2011,09,27,23,39,10.20
2011,09,27,23,40,10.20
2011,09,27,23,41,10.20
2011,09,27,23,42,10.10
2011,09,27,23,43,10.10
2011,09,27,23,44,10.10
2011,09,27,23,45,10.10
2011,09,27,23,46,10.10
2011,09,27,23,47,10.10
2011,09,27,23,48,10.10
2011,09,27,23,49,10.10
2011,09,27,23,50,10.00
2011,09,27,23,51,10.00
2011,09,27,23,52,10.00
2011,09,27,23,53,10.00
2011,09,27,23,54,10.00
2011,09,27,23,55,10.10
2011,09,27,23,56,10.10
2011,09,27,23,57,10.00
2011,09,27,23,58,10.00
2011,09,27,23,59,10.00
